Terminal Aerodrome Forecast
Issued by NWS New Orleans/Baton Rouge, LA

Home | Current Version | Previous Version | Text Only | Print | Product List | Glossary On
Versions: 1 2 3 4 5 6 7 8 9 10 11 12 13 14 15 16 17 18 19 20 21 22 23 24 25 26 27 28 29 30 31 32 33 34 35 36
000
FTUS44 KLIX 050520
TAFNEW
TAF
KNEW 050520Z 0506/0606 23007KT P6SM SCT040
     FM051400 24010KT P6SM SCT035 PROB30 0519/0524 2SM TSRA BKN030CB
     FM060100 23007KT P6SM SCT090 BKN250=

USA.gov is the U.S. government's official web portal to all federal, state and local government web resources and services.